Other Surface Observations
Issued by NWS

Home | Current Version | Previous Version | Text Only | Print | Product List | Glossary On
Versions: 1 2 3 4 5 6 7 8 9 10 11 12 13 14 15 16 17 18 19 20 21 22 23 24 25 26 27 28 29 30 31 32 33 34 35 36 37 38 39 40 41 42 43 44 45 46 47 48 49 50
000
SXUS53 KWBC 221139
OSOPZ
:SHEF ENCODED 6-MINUTE NOS MET DATA
:NATIONAL WATER LEVEL OBSERVATION NETWORK (NWLON)
:TA(AIR TEMP DEG F)  SLP(SEA LEVEL PRESSURE INCHES)
:UD(WIND DIRECTION WHOLE DEGREES) US (WIND SPEED MPH)
:TW(WATER TEMP DEG F) UG(WIND GUSTS MPH) WC(CONDUCTIVITY uMHOS/CM)
:-9999 (MISSING VALUES)
:PROVIDED BY DOC/NOAA/NOS/CO-OPS, (301) 713-2540
:corms@noaa.gov
.A SDBC1 20190522 Z DH1118/TAIRG -9999/UGIRG -9999/PLIRG 29.74/UDIRG -9999/USIRG -9999/TWIRG    65/WCIRG -9999
.A LJAC1 20190522 Z DH1118/TAIRG -9999/UGIRG -9999/PLIRG 29.73/UDIRG -9999/USIRG -9999/TWIRG    64/WCIRG -9999
.E AGXC1 20190522 Z DH1130/TAIRP/DIN06/   57/   57
.E AGXC1 20190522 Z DH1130/PLIRP/DIN06/29.72/29.72
.E AGXC1 20190522 Z DH1130/USIRP/DIN06/    9/    6
.E AGXC1 20190522 Z DH1130/UDIRP/DIN06/  257/  266
.E AGXC1 20190522 Z DH1130/UGIRP/DIN06/   11/    7
.E OHBC1 20190522 Z DH1118/PLIRG/DIN06/29.72/29.72
.E OHBC1 20190522 Z DH1118/TWIRG/DIN06/   58/   58
.E PRJC1 20190522 Z DH1130/USIRP/DIN06/    8/    8
.E PRJC1 20190522 Z DH1130/UDIRP/DIN06/  305/  300
.E PRJC1 20190522 Z DH1130/UGIRP/DIN06/   13/   14
.A PFDC1 20190522 Z DH1130/TAIRP -9999/UGIRP    12/PLIRP -9999/UDIRP   279/USIRP    10/TWIRP -9999/WCIRG -9999
.E PFXC1 20190522 Z DH1130/TAIRP/DIN06/   57/   58
.E PFXC1 20190522 Z DH1130/PLIRP/DIN06/29.69/29.69
.E PFXC1 20190522 Z DH1130/USIRP/DIN06/   19/   15
.E PFXC1 20190522 Z DH1130/UDIRP/DIN06/  306/  308
.E PFXC1 20190522 Z DH1130/UGIRP/DIN06/   22/   21
.A BAXC1 20190522 Z DH1136/TAIRP -9999/UGIRP    18/PLIRP -9999/UDIRP   166/USIRP    17/TWIRP -9999/WCIRG -9999
.E PSXC1 20190522 Z DH1130/USIRP/DIN06/   11/   13
.E PSXC1 20190522 Z DH1130/UDIRP/DIN06/  278/  275
.E PSXC1 20190522 Z DH1130/UGIRP/DIN06/   16/   20
.E ICAC1 20190522 Z DH1118/PLIRG/DIN06/29.72/29.72
.E ICAC1 20190522 Z DH1118/TWIRG/DIN06/   58/   58
.E NTBC1 20190522 Z DH1124/PLIRP/DIN06/29.76/29.76
.E NTBC1 20190522 Z DH1118/TAIRG/DIN06/-9999/   55
.E NTBC1 20190522 Z DH1118/PLIRG/DIN06/29.77/29.76
.E NTBC1 20190522 Z DH1118/USIRG/DIN06/-9999/   10
.E NTBC1 20190522 Z DH1118/UDIRG/DIN06/-9999/  242
.E NTBC1 20190522 Z DH1118/UGIRG/DIN06/-9999/   17
.E PSLC1 20190522 Z DH1124/TAIRP/DIN06/   55/   55
.E PSLC1 20190522 Z DH1124/PLIRP/DIN06/29.84/29.84
.E PSLC1 20190522 Z DH1124/USIRP/DIN06/   13/   15
.E PSLC1 20190522 Z DH1124/UDIRP/DIN06/  329/  321
.E PSLC1 20190522 Z DH1124/UGIRP/DIN06/   17/   26
.E PSLC1 20190522 Z DH1124/TWIRP/DIN06/   53/   53
.E PSLC1 20190522 Z DH1118/TAIRG/DIN06/   55/   55
.E PSLC1 20190522 Z DH1118/PLIRG/DIN06/29.85/29.84
.E PSLC1 20190522 Z DH1118/USIRG/DIN06/   16/   13
.E PSLC1 20190522 Z DH1118/UDIRG/DIN06/  325/  329
.E PSLC1 20190522 Z DH1118/UGIRG/DIN06/   22/   17
.E PSLC1 20190522 Z DH1118/TWIRG/DIN06/   53/   53
.E MEYC1 20190522 Z DH1112/PLIRG/DIN06/29.84/29.84
.E MEYC1 20190522 Z DH1112/TWIRG/DIN06/   59/   59
.E FTPC1 20190522 Z DH1118/TAIRG/DIN06/   53/   53
.E FTPC1 20190522 Z DH1118/PLIRG/DIN06/29.83/29.82
.E FTPC1 20190522 Z DH1118/USIRG/DIN06/    2/    3
.E FTPC1 20190522 Z DH1118/UDIRG/DIN06/  199/  242
.E FTPC1 20190522 Z DH1118/UGIRG/DIN06/    3/    4
.E FTPC1 20190522 Z DH1118/TWIRG/DIN06/   58/   58
.E PXSC1 20190522 Z DH1124/TAIRP/DIN06/   56/   56
.E PXOC1 20190522 Z DH1124/TAIRP/DIN06/   54/   54
.E PXOC1 20190522 Z DH1124/PLIRP/DIN06/29.78/29.79
.E PXOC1 20190522 Z DH1124/USIRP/DIN06/    6/    8
.E PXOC1 20190522 Z DH1124/UDIRP/DIN06/  299/  285
.E PXOC1 20190522 Z DH1124/UGIRP/DIN06/   13/   14
.A RTYC1 20190522 Z DH1124/TAIRG    55/UGIRG    21/PLIRG 29.83/UDIRG   286/USIRG    16/TWIRG    63/WCIRG -9999
.E AAMC1 20190522 Z DH1118/TAIRG/DIN06/   55/   55
.E AAMC1 20190522 Z DH1118/PLIRG/DIN06/29.83/29.83
.E AAMC1 20190522 Z DH1118/USIRG/DIN06/    6/    7
.E AAMC1 20190522 Z DH1118/UDIRG/DIN06/  290/  286
.E AAMC1 20190522 Z DH1118/UGIRG/DIN06/   11/    9
.E AAMC1 20190522 Z DH1118/TWIRG/DIN06/   61/   61
.A LNDC1 20190522 Z DH1124/TAIRG    55/UGIRG    11/PLIRG 29.81/UDIRG   326/USIRG     6/TWIRG -9999/WCIRG -9999
.E OMHC1 20190522 Z DH1118/USIRG/DIN06/   11/    9
.E OMHC1 20190522 Z DH1118/UDIRG/DIN06/  310/  303
.E OMHC1 20190522 Z DH1118/UGIRG/DIN06/   14/   12
.A OKXC1 20190522 Z DH1124/TAIRG    55/UGIRG    13/PLIRG 29.81/UDIRG   324/USIRG    10/TWIRG -9999/WCIRG -9999
.A OBXC1 20190522 Z DH1124/TAIRG    56/UGIRG -9999/PLIRG -9999/UDIRG -9999/USIRG -9999/TWIRG -9999/WCIRG -9999
.E PPXC1 20190522 Z DH1124/TAIRP/DIN06/   56/   56
.E PPXC1 20190522 Z DH1124/PLIRP/DIN06/29.82/29.82
.E PPXC1 20190522 Z DH1124/USIRP/DIN06/    7/    8
.E PPXC1 20190522 Z DH1124/UDIRP/DIN06/  316/  319
.E PPXC1 20190522 Z DH1124/UGIRP/DIN06/   10/   11
.A RCMC1 20190522 Z DH1124/TAIRP -9999/UGIRP -9999/PLIRP -9999/UDIRP -9999/USIRP -9999/TWIRP    59/WCIRG -9999
.E RCMC1 20190522 Z DH1118/TAIRG/DIN06/   55/   55
.E RCMC1 20190522 Z DH1118/PLIRG/DIN06/29.81/29.81
.E RCMC1 20190522 Z DH1118/USIRG/DIN06/    9/    7
.E RCMC1 20190522 Z DH1118/UDIRG/DIN06/  322/  309
.E RCMC1 20190522 Z DH1118/UGIRG/DIN06/   11/   11
.E RCMC1 20190522 Z DH1118/TWIRG/DIN06/   59/   59
.E PRYC1 20190522 Z DH1118/PLIRG/DIN06/29.83/29.83
.E PRYC1 20190522 Z DH1118/TWIRG/DIN06/   56/   56
.E MZXC1 20190522 Z DH1118/TAIRG/DIN06/   54/   54
.E MZXC1 20190522 Z DH1118/PLIRG/DIN06/29.81/29.81
.E MZXC1 20190522 Z DH1118/USIRG/DIN06/   15/   16
.E MZXC1 20190522 Z DH1118/UDIRG/DIN06/  293/  295
.E MZXC1 20190522 Z DH1118/UGIRG/DIN06/   17/   17
.E MZXC1 20190522 Z DH1118/TWIRG/DIN06/   62/   62
.E PSBC1 20190522 Z DH1118/TAIRG/DIN06/   54/   54
.E PSBC1 20190522 Z DH1118/PLIRG/DIN06/29.80/29.80
.E PSBC1 20190522 Z DH1118/USIRG/DIN06/    9/    9
.E PSBC1 20190522 Z DH1118/UDIRG/DIN06/  280/  284
.E PSBC1 20190522 Z DH1118/UGIRG/DIN06/   13/   14
.E UPBC1 20190522 Z DH1124/USIRP/DIN06/   12/   11
.E UPBC1 20190522 Z DH1124/UDIRP/DIN06/  297/  296
.E UPBC1 20190522 Z DH1124/UGIRP/DIN06/   17/   17
.E DPXC1 20190522 Z DH1124/TAIRP/DIN06/   54/   54
.E DPXC1 20190522 Z DH1124/PLIRP/DIN06/29.81/29.81
.E DPXC1 20190522 Z DH1124/USIRP/DIN06/   10/   13
.E DPXC1 20190522 Z DH1124/UDIRP/DIN06/  314/  314
.E DPXC1 20190522 Z DH1124/UGIRP/DIN06/   13/   16
.E PCOC1 20190522 Z DH1118/TAIRG/DIN06/   54/   54
.E PCOC1 20190522 Z DH1118/PLIRG/DIN06/29.81/29.81
.E PCOC1 20190522 Z DH1118/USIRG/DIN06/   13/   15
.E PCOC1 20190522 Z DH1118/UDIRG/DIN06/  267/  271
.E PCOC1 20190522 Z DH1118/UGIRG/DIN06/   17/   17
.E PCOC1 20190522 Z DH1118/TWIRG/DIN06/   62/   62
.A ANVC1 20190522 Z DH1124/TAIRG    53/UGIRG     7/PLIRG 29.86/UDIRG   263/USIRG     4/TWIRG    53/WCIRG -9999
.E HBYC1 20190522 Z DH1106/PLIRG/DIN06/29.93/29.93/29.93/29.93
.E HBYC1 20190522 Z DH1106/TWIRG/DIN06/   54/   54/   54/   54
.A CECC1 20190522 Z DH1118/TAIRG    48/UGIRG     6/PLIRG 29.95/UDIRG    22/USIRG     4/TWIRG    54/WCIRG -9999
.E PORO3 20190522 Z DH1118/TAIRG/DIN06/   52/   52
.E PORO3 20190522 Z DH1118/PLIRG/DIN06/30.02/30.02
.E PORO3 20190522 Z DH1118/USIRG/DIN06/    6/    7
.E PORO3 20190522 Z DH1118/UDIRG/DIN06/  331/  333
.E PORO3 20190522 Z DH1118/UGIRG/DIN06/   11/   14
.E PORO3 20190522 Z DH1118/TWIRG/DIN06/   53/   53
.E CHAO3 20190522 Z DH1124/USIRP/DIN06/   14/   13
.E CHAO3 20190522 Z DH1124/UDIRP/DIN06/  347/  347
.E CHAO3 20190522 Z DH1124/UGIRP/DIN06/   18/   16
.E CHAO3 20190522 Z DH1112/PLIRG/DIN06/30.00/30.00/30.00
.E CHAO3 20190522 Z DH1112/TWIRG/DIN06/   53/   53/   53
.E SBEO3 20190522 Z DH1118/TAIRG/DIN06/   55/   54
.E SBEO3 20190522 Z DH1118/PLIRG/DIN06/29.98/29.98
.E SBEO3 20190522 Z DH1118/USIRG/DIN06/    5/    9
.E SBEO3 20190522 Z DH1118/UDIRG/DIN06/  350/  327
.E SBEO3 20190522 Z DH1118/UGIRG/DIN06/    9/   11
.E SBEO3 20190522 Z DH1118/TWIRG/DIN06/   55/   55
.E TLBO3 20190522 Z DH1106/PLIRG/DIN06/29.97/29.97/29.97/29.97
.E TLBO3 20190522 Z DH1106/TWIRG/DIN06/   55/   55/   55/   55
.E ASTO3 20190522 Z DH1118/TAIRG/DIN06/   55/   55
.E ASTO3 20190522 Z DH1118/PLIRG/DIN06/29.95/29.95
.E ASTO3 20190522 Z DH1118/USIRG/DIN06/    3/    6
.E ASTO3 20190522 Z DH1118/UDIRG/DIN06/  227/  275
.E ASTO3 20190522 Z DH1118/UGIRG/DIN06/    4/    7
.E ASTO3 20190522 Z DH1118/TWIRG/DIN06/   58/   58
.E LOPW1 20190522 Z DH1118/PLIRG/DIN06/29.95/29.95
.E LOPW1 20190522 Z DH1118/TWIRG/DIN06/   57/   57
.E TOKW1 20190522 Z DH1118/TAIRG/DIN06/   55/   55
.E TOKW1 20190522 Z DH1118/PLIRG/DIN06/29.96/29.96
.E TOKW1 20190522 Z DH1118/USIRG/DIN06/    4/    6
.E TOKW1 20190522 Z DH1118/UDIRG/DIN06/   11/   18
.E TOKW1 20190522 Z DH1118/UGIRG/DIN06/    6/    8
.E TOKW1 20190522 Z DH1118/TWIRG/DIN06/   58/   58
.E WPTW1 20190522 Z DH1118/PLIRG/DIN06/29.95/29.95
.E WPTW1 20190522 Z DH1118/TWIRG/DIN06/   56/   56
.E LAPW1 20190522 Z DH1124/PLIRP/DIN06/29.94/29.94
.E LAPW1 20190522 Z DH1124/TWIRP/DIN06/   56/   56
.E LAPW1 20190522 Z DH1118/PLIRG/DIN06/29.94/29.94
.E LAPW1 20190522 Z DH1118/TWIRG/DIN06/   56/   56
.E NEAW1 20190522 Z DH1118/PLIRG/DIN06/29.93/29.93
.E NEAW1 20190522 Z DH1118/TWIRG/DIN06/   52/   52
.E PTAW1 20190522 Z DH1118/TAIRG/DIN06/   49/   49
.E PTAW1 20190522 Z DH1118/PLIRG/DIN06/29.95/29.95
.E PTAW1 20190522 Z DH1118/TWIRG/DIN06/   49/   49
.E PTWW1 20190522 Z DH1118/TAIRG/DIN06/   51/   51
.E PTWW1 20190522 Z DH1118/PLIRG/DIN06/29.96/29.96
.E PTWW1 20190522 Z DH1118/USIRG/DIN06/    6/    4
.E PTWW1 20190522 Z DH1118/UDIRG/DIN06/  174/  188
.E PTWW1 20190522 Z DH1118/UGIRG/DIN06/    6/    6
.E PTWW1 20190522 Z DH1118/TWIRG/DIN06/   50/   50
.A TCMW1 20190522 Z DH1118/TAIRG -9999/UGIRG     4/PLIRG -9999/UDIRG   103/USIRG     3/TWIRG -9999/WCIRG -9999
.A TCNW1 20190522 Z DH1118/TAIRG    51/UGIRG -9999/PLIRG 29.96/UDIRG -9999/USIRG -9999/TWIRG    51/WCIRG -9999
.A CPMW1 20190522 Z DH1118/TAIRG    52/UGIRG     3/PLIRG -9999/UDIRG   356/USIRG     2/TWIRG    50/WCIRG -9999
.E CHYW1 20190522 Z DH1118/PLIRG/DIN06/29.94/29.94
.E CPNW1 20190522 Z DH1042/TAIRG/DIN06/   52/   52/   52/   52/   52/   52/   52/   53
.E CPNW1 20190522 Z DH1042/USIRG/DIN06/    2/    3/    3/    1/    2/    2/    4/    4
.E CPNW1 20190522 Z DH1042/UDIRG/DIN06/   92/  108/   95/   73/   58/   37/   28/   31
.E CPNW1 20190522 Z DH1042/UGIRG/DIN06/    3/    3/    5/    3/    2/    3/    4/    5
.A FRDW1 20190522 Z DH1130/TAIRP    50/UGIRP     2/PLIRP -9999/UDIRP   239/USIRP     1/TWIRP -9999/WCIRG -9999
.E FRDW1 20190522 Z DH1118/PLIRG/DIN06/29.94/29.94
.E FRDW1 20190522 Z DH1118/TWIRG/DIN06/   50/   50
.E MGIP4 20190522 Z DH1118/TAIRG/DIN06/   82/   82
.E MGIP4 20190522 Z DH1118/PLIRG/DIN06/29.98/29.98
.E MGIP4 20190522 Z DH1118/USIRG/DIN06/    4/    4
.E MGIP4 20190522 Z DH1118/UDIRG/DIN06/  109/  106
.E MGIP4 20190522 Z DH1118/UGIRG/DIN06/    8/   10
.E MGIP4 20190522 Z DH1118/TWIRG/DIN06/   83/   83



USA.gov is the U.S. government's official web portal to all federal, state and local government web resources and services.